EWG3313 EDDH-LOWI

Flight info

Callsign EWG3313
Flight time N/A
Altitude 35000
Route AMLUH2C AMLUH M852 DENIX DCT ZUCKA/N0459F310 DCT GALMA M736 RDG/N0462F300 M736 DOSEL/N0461F310 M736 TULSI TULSI3A
Aircraft A320/M-SDE3FGHIRWY/LB1

Departure

Time 2026-05-06 14:55
Airport Hamburg Helmut Schmidt Airport (EDDH)

Arrival

Time N/A
Airport Innsbruck Airport (LOWI)
Time Latitude Longitude Altitude Speed Heading
2026-05-06 14:04 53.63292 10.00361 49 ft 0 kts 87°
2026-05-06 14:36 53.63292 10.00342 48 ft 4 kts 87°
2026-05-06 14:37 53.63290 10.00297 48 ft 4 kts 87°
2026-05-06 14:37 53.63289 10.00254 48 ft 2 kts 87°
2026-05-06 14:37 53.63289 10.00216 48 ft 4 kts 102°
2026-05-06 14:37 53.63299 10.00177 46 ft 4 kts 144°
2026-05-06 14:38 53.63311 10.00168 43 ft 0 kts 176°
2026-05-06 14:41 53.63290 10.00170 48 ft 3 kts 176°
2026-05-06 14:41 53.63272 10.00172 48 ft 2 kts 176°
2026-05-06 14:41 53.63263 10.00173 48 ft 1 kts 176°
2026-05-06 14:41 53.63257 10.00174 48 ft 1 kts 176°
2026-05-06 14:42 53.63247 10.00175 48 ft 3 kts 176°
2026-05-06 14:42 53.63203 10.00180 48 ft 10 kts 176°
2026-05-06 14:42 53.63139 10.00188 48 ft 9 kts 176°
2026-05-06 14:42 53.63084 10.00191 47 ft 7 kts 188°
2026-05-06 14:43 53.63055 10.00171 47 ft 6 kts 210°
2026-05-06 14:43 53.63014 10.00126 48 ft 8 kts 213°
2026-05-06 14:43 53.62970 10.00078 48 ft 7 kts 213°
2026-05-06 14:43 53.62939 10.00040 48 ft 0 kts 226°
2026-05-06 14:46 53.62930 10.00019 48 ft 5 kts 236°
2026-05-06 14:47 53.62910 9.99957 48 ft 6 kts 242°
2026-05-06 14:47 53.62896 9.99914 48 ft 0 kts 242°
2026-05-06 14:53 53.62894 9.99905 48 ft 2 kts 242°
2026-05-06 14:54 53.62879 9.99857 45 ft 11 kts 242°
2026-05-06 14:54 53.62882 9.99737 45 ft 10 kts 320°
2026-05-06 14:54 53.62947 9.99678 45 ft 16 kts 332°
2026-05-06 14:54 53.63231 9.99434 47 ft 82 kts 333°
2026-05-06 14:55 53.63929 9.98834 50 ft 140 kts 333°
2026-05-06 14:55 53.64913 9.97959 285 ft 168 kts 334°
2026-05-06 14:55 53.65933 9.96987 1097 ft 170 kts 335°
2026-05-06 14:55 53.66978 9.95978 1746 ft 179 kts 335°
2026-05-06 14:56 53.68120 9.94905 2150 ft 199 kts 336°
2026-05-06 14:56 53.69424 9.93868 2731 ft 212 kts 347°
2026-05-06 14:56 53.70897 9.93341 3374 ft 224 kts
2026-05-06 14:56 53.72418 9.93587 4347 ft 214 kts 20°
2026-05-06 14:57 53.73779 9.94551 5263 ft 215 kts 36°
2026-05-06 14:57 53.74725 9.96458 5921 ft 222 kts 68°
2026-05-06 14:57 53.75020 9.98968 5920 ft 217 kts 85°
2026-05-06 14:57 53.74970 10.01539 6527 ft 223 kts 107°
2026-05-06 14:58 53.74297 10.03920 7402 ft 227 kts 118°
2026-05-06 14:58 53.73381 10.06220 7863 ft 252 kts 124°
2026-05-06 14:58 53.72379 10.08792 8394 ft 269 kts 119°
2026-05-06 14:58 53.71429 10.11575 9200 ft 277 kts 118°
2026-05-06 14:59 53.70485 10.14471 9738 ft 284 kts 117°
2026-05-06 14:59 53.69431 10.17313 9974 ft 294 kts 128°
2026-05-06 14:59 53.67913 10.19833 10316 ft 320 kts 142°
2026-05-06 14:59 53.65893 10.21710 10607 ft 344 kts 159°
2026-05-06 15:00 53.63544 10.22822 11177 ft 354 kts 164°
2026-05-06 15:00 53.61156 10.23894 11996 ft 356 kts 164°
2026-05-06 15:00 53.58753 10.24986 12817 ft 359 kts 164°
2026-05-06 15:00 53.56340 10.26093 13618 ft 361 kts 164°
2026-05-06 15:01 53.53898 10.27218 14310 ft 365 kts 165°
2026-05-06 15:01 53.51451 10.28343 15013 ft 367 kts 165°
2026-05-06 15:01 53.48975 10.29479 15660 ft 371 kts 165°
2026-05-06 15:01 53.46471 10.30622 16264 ft 375 kts 166°
2026-05-06 15:02 53.43943 10.31777 16892 ft 378 kts 166°
2026-05-06 15:02 53.41424 10.32926 17495 ft 382 kts 166°
2026-05-06 15:02 53.38840 10.34096 18092 ft 385 kts 167°
2026-05-06 15:02 53.36242 10.35261 18650 ft 388 kts 167°
2026-05-06 15:03 53.33621 10.36430 19179 ft 391 kts 167°
2026-05-06 15:03 53.30974 10.37607 19682 ft 395 kts 167°
2026-05-06 15:03 53.28310 10.38799 20185 ft 398 kts 166°
2026-05-06 15:03 53.25626 10.40005 20715 ft 401 kts 166°
2026-05-06 15:04 53.22924 10.41221 21219 ft 404 kts 166°
2026-05-06 15:04 53.20199 10.42443 21707 ft 407 kts 166°
2026-05-06 15:04 53.17455 10.43667 22212 ft 410 kts 166°
2026-05-06 15:04 53.14692 10.44895 22717 ft 412 kts 166°
2026-05-06 15:05 53.11903 10.46098 23208 ft 415 kts 167°
2026-05-06 15:05 53.09082 10.47129 23617 ft 418 kts 169°
2026-05-06 15:05 53.06214 10.48023 24024 ft 420 kts 170°
2026-05-06 15:05 53.03327 10.48843 24424 ft 422 kts 171°
2026-05-06 15:06 53.00457 10.49641 24783 ft 425 kts 170°
2026-05-06 15:06 52.97535 10.50475 25178 ft 426 kts 170°
2026-05-06 15:06 52.94603 10.51345 25542 ft 429 kts 169°
2026-05-06 15:06 52.91654 10.52246 25894 ft 432 kts 169°
2026-05-06 15:07 52.88696 10.53166 26278 ft 433 kts 169°
2026-05-06 15:07 52.85732 10.54098 26644 ft 435 kts 169°
2026-05-06 15:07 52.82748 10.55037 26978 ft 437 kts 169°
2026-05-06 15:07 52.79756 10.55969 27349 ft 439 kts 169°
2026-05-06 15:08 52.76746 10.56901 27678 ft 441 kts 169°
2026-05-06 15:08 52.73720 10.57831 27979 ft 444 kts 169°
2026-05-06 15:08 52.70677 10.58763 28323 ft 446 kts 169°
2026-05-06 15:08 52.67625 10.59694 28656 ft 447 kts 171°
2026-05-06 15:09 52.64566 10.60624 29110 ft 445 kts 171°
2026-05-06 15:09 52.61533 10.61552 29608 ft 443 kts 171°
2026-05-06 15:09 52.58504 10.62478 30041 ft 442 kts 171°
2026-05-06 15:09 52.55487 10.63396 30410 ft 441 kts 171°
2026-05-06 15:10 52.52473 10.64310 30766 ft 440 kts 172°
2026-05-06 15:10 52.49505 10.65209 31179 ft 437 kts 172°
2026-05-06 15:10 52.46523 10.66113 31577 ft 436 kts 172°
2026-05-06 15:10 52.43537 10.67018 31966 ft 435 kts 172°
2026-05-06 15:11 52.40562 10.67921 32341 ft 435 kts 172°
2026-05-06 15:11 52.37587 10.68824 32674 ft 435 kts 172°
2026-05-06 15:11 52.34617 10.69722 33021 ft 434 kts 173°
2026-05-06 15:11 52.31642 10.70616 33362 ft 434 kts 173°
2026-05-06 15:12 52.28665 10.71509 33712 ft 434 kts 173°
2026-05-06 15:12 52.25694 10.72399 34019 ft 434 kts 173°
2026-05-06 15:12 52.22727 10.73287 34313 ft 433 kts 173°
2026-05-06 15:12 52.19758 10.74173 34608 ft 434 kts 173°
2026-05-06 15:13 52.16779 10.75063 34769 ft 435 kts 173°
2026-05-06 15:13 52.10855 10.76828 34802 ft 435 kts 173°
2026-05-06 15:14 52.04896 10.78601 34797 ft 435 kts 173°
2026-05-06 15:14 51.98949 10.80376 34791 ft 434 kts 173°
2026-05-06 15:15 51.93022 10.82143 34790 ft 433 kts 171°
2026-05-06 15:15 51.87352 10.85648 34785 ft 439 kts 161°
2026-05-06 15:16 51.81734 10.89594 34782 ft 438 kts 161°
2026-05-06 15:16 51.76172 10.93495 34764 ft 438 kts 160°
2026-05-06 15:17 51.70569 10.97411 34759 ft 439 kts 160°
2026-05-06 15:17 51.64970 11.01322 34767 ft 439 kts 160°
2026-05-06 15:18 51.59349 11.05234 34765 ft 440 kts 161°
2026-05-06 15:18 51.53722 11.09133 34769 ft 440 kts 161°
2026-05-06 15:19 51.48138 11.12997 34756 ft 439 kts 161°
2026-05-06 15:19 51.42533 11.16871 34784 ft 438 kts 161°
2026-05-06 15:20 51.36941 11.20725 34789 ft 436 kts 161°
2026-05-06 15:20 51.31367 11.24561 34786 ft 436 kts 161°
2026-05-06 15:21 51.25791 11.28381 34778 ft 435 kts 161°
2026-05-06 15:21 51.20217 11.32176 34776 ft 435 kts 161°
2026-05-06 15:22 51.14651 11.35958 34775 ft 435 kts 161°
2026-05-06 15:22 51.09088 11.39741 34774 ft 435 kts 161°
2026-05-06 15:23 51.03528 11.43508 34744 ft 434 kts 162°
2026-05-06 15:23 50.97989 11.47248 34747 ft 434 kts 162°
2026-05-06 15:24 50.92419 11.51005 34753 ft 434 kts 162°
2026-05-06 15:24 50.86861 11.54747 34757 ft 434 kts 162°
2026-05-06 15:25 50.81300 11.58474 34757 ft 434 kts 162°
2026-05-06 15:25 50.75737 11.62192 34757 ft 434 kts 162°
2026-05-06 15:26 50.70139 11.65662 34742 ft 427 kts 172°
2026-05-06 15:26 50.64328 11.66345 34746 ft 421 kts 182°
2026-05-06 15:27 50.58467 11.66642 34754 ft 421 kts 182°
2026-05-06 15:27 50.52598 11.66933 34767 ft 421 kts 182°
2026-05-06 15:28 50.46730 11.67241 34760 ft 421 kts 182°
2026-05-06 15:28 50.40874 11.67548 34777 ft 421 kts 182°
2026-05-06 15:29 50.35012 11.67857 34789 ft 421 kts 182°
2026-05-06 15:29 50.29189 11.68160 34794 ft 421 kts 182°
2026-05-06 15:30 50.23333 11.68461 34788 ft 421 kts 182°
2026-05-06 15:30 50.17472 11.68757 34788 ft 421 kts 182°
2026-05-06 15:31 50.11615 11.69051 34784 ft 421 kts 182°
2026-05-06 15:31 50.06749 11.69305 34778 ft 421 kts 182°
2026-05-06 15:32 49.97964 11.69766 34754 ft 421 kts 182°
2026-05-06 15:32 49.92112 11.70065 34751 ft 421 kts 182°
2026-05-06 15:33 49.86262 11.70368 34750 ft 421 kts 182°
2026-05-06 15:33 49.80407 11.70669 34753 ft 421 kts 182°
2026-05-06 15:34 49.74591 11.70965 34759 ft 421 kts 182°
2026-05-06 15:34 49.68744 11.71265 34762 ft 420 kts 182°
2026-05-06 15:35 49.62896 11.71555 34764 ft 420 kts 182°
2026-05-06 15:35 49.57054 11.71846 34769 ft 420 kts 182°
2026-05-06 15:36 49.51214 11.72140 34743 ft 419 kts 183°
2026-05-06 15:36 49.45387 11.72436 34769 ft 418 kts 183°
2026-05-06 15:37 49.39561 11.72730 34778 ft 419 kts 183°
2026-05-06 15:37 49.33777 11.73022 34788 ft 417 kts 183°
2026-05-06 15:38 49.27976 11.73303 34786 ft 417 kts 183°
2026-05-06 15:38 49.22184 11.73597 34786 ft 416 kts 183°
2026-05-06 15:39 49.16389 11.73879 34781 ft 416 kts 183°
2026-05-06 15:39 49.10612 11.74163 34775 ft 415 kts 183°
2026-05-06 15:40 49.04849 11.74449 34778 ft 414 kts 183°
2026-05-06 15:40 48.99113 11.74738 34778 ft 413 kts 183°
2026-05-06 15:41 48.93375 11.75024 34782 ft 412 kts 183°
2026-05-06 15:41 48.87680 11.75302 34786 ft 412 kts 183°
2026-05-06 15:42 48.81925 11.75579 34788 ft 411 kts 183°
2026-05-06 15:42 48.76246 11.75857 34790 ft 410 kts 183°
2026-05-06 15:43 48.70539 11.76134 34785 ft 410 kts 184°
2026-05-06 15:43 48.64846 11.76411 34774 ft 409 kts 184°
2026-05-06 15:44 48.59154 11.76693 34771 ft 409 kts 183°
2026-05-06 15:44 48.53466 11.76976 34738 ft 409 kts 184°
2026-05-06 15:45 48.47811 11.77252 34780 ft 409 kts 184°
2026-05-06 15:45 48.42112 11.77517 34783 ft 409 kts 184°
2026-05-06 15:46 48.36419 11.77785 34785 ft 410 kts 184°
2026-05-06 15:46 48.33566 11.77926 34558 ft 410 kts 184°
2026-05-06 15:46 48.30716 11.78066 33992 ft 410 kts 184°
2026-05-06 15:47 48.27853 11.78202 33085 ft 412 kts 184°
2026-05-06 15:47 48.25024 11.78334 32221 ft 412 kts 184°
2026-05-06 15:47 48.22148 11.78467 31268 ft 414 kts 183°
2026-05-06 15:47 48.19253 11.78601 30327 ft 417 kts 183°
2026-05-06 15:48 48.16357 11.78740 29748 ft 411 kts 182°
2026-05-06 15:48 48.13552 11.78881 29635 ft 398 kts 183°
2026-05-06 15:48 48.10753 11.79014 29518 ft 404 kts 183°
2026-05-06 15:48 48.07936 11.79145 29414 ft 406 kts 182°
2026-05-06 15:49 48.05115 11.79280 29302 ft 407 kts 182°
2026-05-06 15:49 48.02280 11.79415 29167 ft 408 kts 183°
2026-05-06 15:49 47.99459 11.79205 29040 ft 403 kts 195°
2026-05-06 15:49 47.96864 11.77903 28944 ft 397 kts 210°
2026-05-06 15:50 47.94617 11.75551 28866 ft 395 kts 224°
2026-05-06 15:50 47.92809 11.72468 28771 ft 396 kts 230°
2026-05-06 15:50 47.89330 11.66086 28582 ft 397 kts 230°
2026-05-06 15:51 47.85849 11.59690 28394 ft 397 kts 230°
2026-05-06 15:51 47.84110 11.56504 28286 ft 395 kts 231°
2026-05-06 15:51 47.82379 11.53345 28210 ft 392 kts 230°
2026-05-06 15:52 47.80649 11.50204 28106 ft 391 kts 230°
2026-05-06 15:52 47.78924 11.47078 28013 ft 391 kts 230°
2026-05-06 15:52 47.77217 11.43984 27915 ft 392 kts 230°
2026-05-06 15:52 47.75475 11.40825 27546 ft 398 kts 229°
2026-05-06 15:53 47.73714 11.37630 26475 ft 402 kts 229°
2026-05-06 15:53 47.71930 11.34397 25397 ft 406 kts 229°
2026-05-06 15:53 47.70133 11.31143 24583 ft 406 kts 229°
2026-05-06 15:53 47.68347 11.27916 23820 ft 404 kts 229°
2026-05-06 15:54 47.66566 11.24707 22995 ft 402 kts 229°
2026-05-06 15:54 47.64796 11.21524 22230 ft 397 kts 229°
2026-05-06 15:54 47.63048 11.18381 21528 ft 392 kts 229°
2026-05-06 15:54 47.61319 11.15273 20860 ft 388 kts 229°
2026-05-06 15:55 47.59633 11.12244 20180 ft 383 kts 230°
2026-05-06 15:55 47.57942 11.09211 19583 ft 380 kts 229°
2026-05-06 15:55 47.56261 11.06204 18942 ft 378 kts 229°
2026-05-06 15:55 47.54593 11.03225 18329 ft 375 kts 229°
2026-05-06 15:56 47.52935 11.00267 17685 ft 372 kts 229°
2026-05-06 15:56 47.51291 10.97331 17095 ft 368 kts 229°
2026-05-06 15:56 47.49667 10.94436 16547 ft 364 kts 229°
2026-05-06 15:56 47.48056 10.91570 16017 ft 360 kts 229°
2026-05-06 15:57 47.46467 10.88741 15544 ft 357 kts 229°
2026-05-06 15:57 47.44881 10.85918 15025 ft 355 kts 229°
2026-05-06 15:57 47.43309 10.83120 14738 ft 355 kts 229°
2026-05-06 15:57 47.41764 10.80375 14625 ft 340 kts 229°
2026-05-06 15:58 47.40291 10.77761 14520 ft 324 kts 229°
2026-05-06 15:58 47.38891 10.75278 14393 ft 307 kts 228°
2026-05-06 15:58 47.37546 10.72897 14247 ft 297 kts 229°
2026-05-06 15:58 47.36240 10.70596 14120 ft 284 kts 229°
2026-05-06 15:59 47.34993 10.68399 14003 ft 275 kts 228°
2026-05-06 15:59 47.33783 10.66270 13915 ft 267 kts 229°
2026-05-06 15:59 47.32610 10.64205 13797 ft 257 kts 230°
2026-05-06 15:59 47.31332 10.62383 13320 ft 260 kts 207°
2026-05-06 16:00 47.29578 10.61933 13094 ft 259 kts 172°
2026-05-06 16:00 47.27994 10.63130 13032 ft 262 kts 138°
2026-05-06 16:00 47.27183 10.65496 12905 ft 269 kts 103°
2026-05-06 16:00 47.27328 10.68304 12454 ft 288 kts 78°
2026-05-06 16:01 47.27899 10.71175 12002 ft 296 kts 75°
2026-05-06 16:01 47.28488 10.74099 11540 ft 296 kts 76°
2026-05-06 16:01 47.29071 10.76976 11080 ft 291 kts 76°
2026-05-06 16:01 47.29648 10.79812 10635 ft 286 kts 78°
2026-05-06 16:02 47.30033 10.82635 10203 ft 277 kts 88°
2026-05-06 16:02 47.30210 10.85423 9758 ft 269 kts 90°
2026-05-06 16:02 47.30306 10.88149 9298 ft 264 kts 90°
2026-05-06 16:02 47.30383 10.90818 8873 ft 257 kts 91°
2026-05-06 16:03 47.30465 10.93423 8483 ft 252 kts 88°
2026-05-06 16:03 47.30556 10.95939 8093 ft 247 kts 88°
2026-05-06 16:03 47.30657 10.98450 7705 ft 244 kts 88°
2026-05-06 16:03 47.30768 11.00928 7302 ft 240 kts 87°
2026-05-06 16:04 47.30882 11.03362 6926 ft 236 kts 86°
2026-05-06 16:04 47.30986 11.05764 6556 ft 232 kts 90°
2026-05-06 16:04 47.30729 11.08088 6189 ft 230 kts 109°
2026-05-06 16:04 47.30090 11.10235 5808 ft 227 kts 114°
2026-05-06 16:05 47.29408 11.12311 5432 ft 223 kts 115°
2026-05-06 16:05 47.28728 11.14344 5088 ft 219 kts 115°
2026-05-06 16:05 47.28060 11.16333 4746 ft 213 kts 116°
2026-05-06 16:05 47.27425 11.18239 4414 ft 209 kts 115°
2026-05-06 16:06 47.26786 11.20126 4075 ft 199 kts 116°
2026-05-06 16:06 47.26168 11.21874 3812 ft 188 kts 115°
2026-05-06 16:06 47.25658 11.23639 3598 ft 186 kts 111°
2026-05-06 16:06 47.25343 11.25446 3560 ft 183 kts 99°
2026-05-06 16:07 47.25389 11.27314 3249 ft 186 kts 88°
2026-05-06 16:07 47.25485 11.29245 2730 ft 188 kts 85°
2026-05-06 16:07 47.25679 11.31019 2444 ft 166 kts 89°
2026-05-06 16:07 47.25835 11.32655 2093 ft 156 kts 88°
2026-05-06 16:08 47.26003 11.34120 1986 ft 129 kts 84°
2026-05-06 16:08 47.26164 11.35497 2500 ft 147 kts 88°
2026-05-06 16:08 47.26288 11.37039 3213 ft 156 kts 88°
2026-05-06 16:08 47.26395 11.38602 3772 ft 150 kts 88°
2026-05-06 16:09 47.26491 11.40111 4314 ft 144 kts 88°
2026-05-06 16:09 47.26580 11.41599 4723 ft 151 kts 89°
2026-05-06 16:09 47.26664 11.43194 5157 ft 161 kts 88°
2026-05-06 16:09 47.26742 11.44871 5585 ft 168 kts 89°
2026-05-06 16:10 47.26814 11.46631 6016 ft 175 kts 90°
2026-05-06 16:10 47.26877 11.48425 6453 ft 179 kts 92°
2026-05-06 16:10 47.27225 11.50283 6631 ft 202 kts 64°
2026-05-06 16:10 47.28026 11.52111 6772 ft 222 kts 57°
2026-05-06 16:11 47.28949 11.54038 6952 ft 236 kts 57°
2026-05-06 16:11 47.29877 11.56082 7233 ft 242 kts 58°
2026-05-06 16:11 47.30785 11.58167 7593 ft 243 kts 60°
2026-05-06 16:11 47.31705 11.60269 8010 ft 245 kts 59°
2026-05-06 16:12 47.32638 11.62403 8389 ft 250 kts 59°
2026-05-06 16:12 47.33580 11.64562 8832 ft 251 kts 59°
2026-05-06 16:12 47.34515 11.66745 9283 ft 253 kts 59°
2026-05-06 16:12 47.35465 11.68950 9476 ft 256 kts 59°
2026-05-06 16:13 47.36429 11.71143 9486 ft 253 kts 60°
2026-05-06 16:13 47.37398 11.73299 9472 ft 252 kts 59°
2026-05-06 16:13 47.38373 11.75446 9473 ft 252 kts 59°
2026-05-06 16:13 47.39349 11.77593 9468 ft 251 kts 59°
2026-05-06 16:14 47.40307 11.79713 9467 ft 252 kts 59°
2026-05-06 16:14 47.41281 11.81890 9467 ft 255 kts 59°
2026-05-06 16:14 47.42253 11.84095 9464 ft 257 kts 59°
2026-05-06 16:14 47.43225 11.86307 9464 ft 257 kts 59°
2026-05-06 16:15 47.44207 11.88524 9457 ft 258 kts 56°
2026-05-06 16:15 47.45470 11.90284 9450 ft 243 kts 29°
2026-05-06 16:15 47.47022 11.91090 9456 ft 234 kts
2026-05-06 16:15 47.48605 11.90935 9443 ft 224 kts 336°
2026-05-06 16:16 47.49961 11.89944 9455 ft 213 kts 314°
2026-05-06 16:16 47.50935 11.88361 9458 ft 205 kts 293°
2026-05-06 16:16 47.51452 11.86465 9441 ft 193 kts 274°
2026-05-06 16:16 47.51507 11.84511 9462 ft 189 kts 257°
2026-05-06 16:17 47.51208 11.82639 9457 ft 187 kts 250°
2026-05-06 16:17 47.50877 11.80775 9461 ft 188 kts 250°
2026-05-06 16:17 47.50546 11.78898 9453 ft 189 kts 251°
2026-05-06 16:17 47.50217 11.77016 9459 ft 189 kts 251°
2026-05-06 16:18 47.49890 11.75135 9478 ft 189 kts 253°
2026-05-06 16:18 47.49561 11.73245 9482 ft 190 kts 252°
2026-05-06 16:18 47.49236 11.71376 9478 ft 190 kts 252°
2026-05-06 16:18 47.48901 11.69477 9478 ft 191 kts 251°
2026-05-06 16:19 47.48564 11.67580 9486 ft 192 kts 253°
2026-05-06 16:19 47.48227 11.65673 9471 ft 190 kts 252°
2026-05-06 16:19 47.47893 11.63779 9477 ft 189 kts 251°
2026-05-06 16:19 47.47564 11.61904 9484 ft 189 kts 251°
2026-05-06 16:20 47.47230 11.60013 9500 ft 192 kts 252°
2026-05-06 16:20 47.47006 11.58747 9476 ft 191 kts 252°